Simultaneous Nadir Overpasses (SNOs) Predictions

Prediction of SNOs between AQUA and METOP-A Satellite Orbit:

Table of predicted SNOs for the next 14.0 days since TLE Epoch: 2/9/2018
Index Date (AQUA) Time (AQUA) Lat,Lon (AQUA) SZA (AQUA ) Date (METOP-A) Time (METOP-A) Lat,Lon (METOP-A) SZA (METOP-A ) Distance(km) Time Diff (sec)
1 02/11/2018 16:33:14 74.16, -74.76 88.18 02/11/2018 16:32:33 74.15, -74.74 88.19 0.64 41
2 02/11/2018 17:22:41 -74.23, 92.71 91.75 02/11/2018 17:23:13 -74.22, 92.76 91.77 1.87 32
3 02/14/2018 12:07:30 74.18, -8.38 87.26 02/14/2018 12:06:50 74.18, -8.28 87.26 3.15 40
4 02/14/2018 12:56:57 -74.25, 159.10 92.68 02/14/2018 12:57:30 -74.25, 159.22 92.69 3.64 33
5 02/17/2018 07:41:46 74.16, 58.10 86.27 02/17/2018 07:41:09 74.15, 58.05 86.26 2.56 37
6 02/17/2018 08:31:13 -74.23,-134.40 93.68 02/17/2018 08:31:49 -74.22,-134.44 93.69 1.51 36
7 02/20/2018 03:16:02 74.15, 124.58 85.25 02/20/2018 03:15:27 74.16, 124.50 85.28 2.61 35
8 02/20/2018 04:05:30 -74.26, -68.03 94.65 02/20/2018 04:06:07 -74.24, -67.98 94.67 2.38 37
9 02/22/2018 22:50:18 74.20,-169.09 84.28 02/22/2018 22:49:44 74.18,-169.05 84.27 2.00 34
10 02/22/2018 23:39:45 -74.24, -1.56 95.69 02/22/2018 23:40:24 -74.26, -1.53 95.68 2.02 39




NCC Satellite Simultaneous Nadir Overpasses (SNOs) Prediction Service
